CW4427 Weather Reports


Display with metric or nautical units.
time (UTC)temp
F
wind
direction
speed
MPH
gust
MPH
rain 1hr
in
rain 24hr
in
rain mn
in
humidity
%
barometer
mb
20260508165919 73 215 2.0 10.0 0.00 0.00 0.00 40 1015.1
20260508165419 73 211 6.0 10.0 0.00 0.00 0.00 45 1015.1
20260508164919 72 82 1.0 10.0 0.00 0.00 0.00 42 1015.2
20260508163919 72 122 0.0 8.0 0.00 0.00 0.00 40 1015.3
20260508163418 72 74 3.0 9.0 0.00 0.00 0.00 43 1015.4
20260508162918 72 188 6.0 9.0 0.00 0.00 0.00 42 1015.5
20260508162418 71 122 3.0 7.0 0.00 0.00 0.00 48 1015.6
20260508161918 71 178 4.0 7.0 0.00 0.00 0.00 45 1015.6
20260508155918 71 195 6.0 7.0 0.00 0.00 0.00 47 1015.8
20260508155418 72 236 3.0 7.0 0.00 0.00 0.00 48 1015.7
20260508154918 71 219 0.0 8.0 0.00 0.00 0.00 46 1015.7
20260508154418 71 147 1.0 8.0 0.00 0.00 0.00 47 1015.7
20260508153918 72 202 0.0 8.0 0.00 0.00 0.00 51 1015.9
20260508153418 71 241 1.0 8.0 0.00 0.00 0.00 53 1015.9
20260508152918 70 178 2.0 8.0 0.00 0.00 0.00 52 1016.0
20260508152418 70 221 1.0 6.0 0.00 0.00 0.00 52 1016.0
20260508151918 70 111 4.0 6.0 0.00 0.00 0.00 51 1016.1
20260508151418 69 190 1.0 7.0 0.00 0.00 0.00 55 1016.1
20260508150918 69 180 2.0 9.0 0.00 0.00 0.00 53 1016.3
20260508150418 69 168 5.0 9.0 0.00 0.00 0.00 55 1016.5
20260508145918 69 193 6.0 6.0 0.00 0.00 0.00 52 1016.4
20260508145418 69 247 1.0 6.0 0.00 0.00 0.00 54 1016.4
20260508144418 68 216 3.0 10.0 0.00 0.00 0.00 57 1016.5
20260508143918 67 122 1.0 7.0 0.00 0.00 0.00 57 1016.5
20260508143417 67 225 5.0 7.0 0.00 0.00 0.00 56 1016.6
20260508142918 67 126 2.0 7.0 0.00 0.00 0.00 57 1016.7
20260508142418 67 167 4.0 7.0 0.00 0.00 0.00 55 1016.7
20260508140917 66 155 1.0 9.0 0.00 0.00 0.00 61 1016.7
20260508140417 65 188 4.0 9.0 0.00 0.00 0.00 60 1016.7
20260508135917 64 214 4.0 6.0 0.00 0.00 0.00 68 1016.7
20260508135417 64 109 2.0 4.0 0.00 0.00 0.00 63 1016.6
20260508134917 64 188 1.0 5.0 0.00 0.00 0.00 67 1016.6
20260508134417 63 192 2.0 5.0 0.00 0.00 0.00 67 1016.6
20260508133917 63 196 2.0 4.0 0.00 0.00 0.00 65 1016.6
20260508133417 62 178 0.0 4.0 0.00 0.00 0.00 73 1016.8
20260508132917 61 217 1.0 2.0 0.00 0.00 0.00 72 1016.8
20260508132417 61 117 1.0 4.0 0.00 0.00 0.00 73 1017.0
20260508131917 61 136 0.0 4.0 0.00 0.00 0.00 74 1017.2
20260508130917 59 107 0.0 0.0 0.00 0.00 0.00 79 1016.9
20260508130417 58 196 0.0 0.0 0.00 0.00 0.00 82 1016.8
20260508125917 57 149 0.0 2.0 0.00 0.00 0.00 84 1016.8
20260508125417 57 123 0.0 2.0 0.00 0.00 0.00 82 1017.0
20260508124417 56 109 2.0 3.0 0.00 0.00 0.00 86 1016.9
20260508123917 55 198 0.0 3.0 0.00 0.00 0.00 87 1016.9
20260508122916 53 175 0.0 5.0 0.00 0.00 0.00 90 1016.8
20260508122416 52 133 0.0 3.0 0.00 0.00 0.00 93 1016.8
20260508121417 51 109 0.0 1.0 0.00 0.00 0.00 94 1016.8
20260508120916 50 109 0.0 0.0 0.00 0.00 0.00 95 1016.8
20260508120416 49 109 0.0 0.0 0.00 0.00 0.00 95 1016.8
20260508115916 49 109 0.0 0.0 0.00 0.00 0.00 95 1016.8
20260508115416 48 109 0.0 0.0 0.00 0.00 0.00 95 1016.8
20260508114916 48 109 0.0 0.0 0.00 0.00 0.00 95 1016.7
20260508113917 47 273 0.0 0.0 0.00 0.00 0.00 95 1016.5
20260508113416 47 273 0.0 0.0 0.00 0.00 0.00 95 1016.5
20260508112917 47 273 0.0 0.0 0.00 0.00 0.00 94 1016.4
20260508112416 47 273 0.0 0.0 0.00 0.00 0.00 94 1016.2
20260508111416 46 273 0.0 0.0 0.00 0.00 0.00 95 1016.0
20260508110917 46 273 0.0 0.0 0.00 0.00 0.00 95 1015.9
20260508110417 46 273 0.0 0.0 0.00 0.00 0.00 94 1016.0
20260508105416 46 273 0.0 0.0 0.00 0.00 0.00 94 1016.0
20260508104916 46 273 0.0 0.0 0.00 0.00 0.00 94 1015.9
20260508104416 46 273 0.0 0.0 0.00 0.00 0.00 94 1015.8
20260508103916 46 273 0.0 0.0 0.00 0.00 0.00 94 1015.9
20260508102916 46 273 0.0 0.0 0.00 0.00 0.00 94 1016.1
20260508102416 47 273 0.0 0.0 0.00 0.00 0.00 94 1016.2
20260508101916 47 273 0.0 0.0 0.00 0.00 0.00 94 1016.1
20260508101416 47 273 0.0 0.0 0.00 0.00 0.00 94 1016.1
20260508100916 47 273 0.0 0.0 0.00 0.00 0.00 94 1016.2
20260508100416 47 273 0.0 0.0 0.00 0.00 0.00 94 1016.1
20260508095916 47 273 0.0 0.0 0.00 0.00 0.00 94 1016.1
20260508095416 47 273 0.0 0.0 0.00 0.00 0.00 94 1016.0
20260508094416 47 273 0.0 0.0 0.00 0.00 0.00 94 1016.1
20260508093916 47 273 0.0 0.0 0.00 0.00 0.00 94 1015.9
20260508093415 47 273 0.0 0.0 0.00 0.00 0.00 94 1015.9
20260508092915 47 273 0.0 0.0 0.00 0.00 0.00 94 1016.0
20260508092415 47 273 0.0 0.0 0.00 0.00 0.00 94 1015.9
20260508091915 47 273 0.0 0.0 0.00 0.00 0.00 94 1015.9
20260508091415 47 273 0.0 0.0 0.00 0.00 0.00 94 1016.0
20260508090915 48 273 0.0 0.0 0.00 0.00 0.00 94 1015.9
20260508090415 48 273 0.0 0.0 0.00 0.00 0.00 94 1015.8
20260508085915 48 273 0.0 0.0 0.00 0.00 0.00 94 1015.8
20260508085415 48 273 0.0 0.0 0.00 0.00 0.00 94 1015.9
20260508084415 48 273 0.0 0.0 0.00 0.00 0.00 94 1015.7
20260508083915 48 273 0.0 0.0 0.00 0.00 0.00 94 1015.7
20260508082915 48 273 0.0 0.0 0.00 0.00 0.00 93 1015.7
20260508082414 48 273 0.0 0.0 0.00 0.00 0.00 93 1015.7
20260508081914 48 273 0.0 0.0 0.00 0.00 0.00 94 1015.7
20260508081415 48 273 0.0 0.0 0.00 0.00 0.00 94 1015.7
20260508080914 48 273 0.0 0.0 0.00 0.00 0.00 94 1015.7
20260508080414 48 273 0.0 0.0 0.00 0.00 0.00 93 1015.8
20260508075914 49 273 0.0 0.0 0.00 0.00 0.00 93 1015.9
20260508074914 49 273 0.0 0.0 0.00 0.00 0.00 93 1015.9
20260508073414 49 273 0.0 0.0 0.00 0.00 0.00 93 1016.0
20260508072914 49 273 0.0 0.0 0.00 0.00 0.00 93 1016.0
20260508072414 49 273 0.0 0.0 0.00 0.00 0.00 93 1016.0
20260508071914 49 273 0.0 0.0 0.00 0.00 0.00 93 1016.1
20260508071414 49 273 0.0 0.0 0.00 0.00 0.00 93 1016.1
20260508070914 50 273 0.0 0.0 0.00 0.00 0.00 93 1016.1
20260508070414 50 273 0.0 0.0 0.00 0.00 0.00 92 1016.2
20260508065414 50 273 0.0 0.0 0.00 0.00 0.00 92 1016.4
20260508064914 50 273 0.0 0.0 0.00 0.00 0.00 92 1016.4
20260508064414 50 273 0.0 0.0 0.00 0.00 0.00 92 1016.4
20260508063914 50 273 0.0 0.0 0.00 0.00 0.00 92 1016.5
20260508063413 50 273 0.0 0.0 0.00 0.00 0.00 92 1016.5
20260508062913 50 273 0.0 0.0 0.00 0.00 0.00 92 1016.7
20260508062413 50 273 0.0 0.0 0.00 0.00 0.00 92 1016.6
20260508061913 50 273 0.0 0.0 0.00 0.00 0.00 92 1016.6
20260508061413 50 273 0.0 0.0 0.00 0.00 0.00 92 1016.5
20260508060914 50 273 0.0 0.0 0.00 0.00 0.00 92 1016.5
20260508060414 50 273 0.0 0.0 0.00 0.00 0.00 92 1016.5
20260508055913 50 273 0.0 0.0 0.00 0.00 0.00 92 1016.6
20260508055414 50 273 0.0 0.0 0.00 0.00 0.00 91 1016.5
20260508054913 50 273 0.0 0.0 0.00 0.00 0.00 91 1016.5
20260508053914 51 273 0.0 0.0 0.00 0.00 0.00 91 1016.4
20260508053413 51 273 0.0 0.0 0.00 0.00 0.00 91 1016.5
20260508052913 51 273 0.0 0.0 0.00 0.00 0.00 91 1016.5
20260508052413 51 273 0.0 0.0 0.00 0.00 0.00 91 1016.6
20260508051914 51 273 0.0 0.0 0.00 0.00 0.00 91 1016.7
20260508051414 51 273 0.0 0.0 0.00 0.00 0.00 90 1016.6
20260508050914 51 273 0.0 0.0 0.00 0.00 0.00 90 1016.6
20260508050414 51 273 0.0 0.0 0.00 0.00 0.00 90 1016.6
20260508045914 51 273 0.0 0.0 0.00 0.00 0.00 90 1016.6
20260508045413 51 273 0.0 0.0 0.00 0.00 0.00 89 1016.6
20260508044413 52 273 0.0 0.0 0.00 0.00 0.00 89 1016.6
20260508043914 52 273 0.0 0.0 0.00 0.00 0.00 89 1016.6
20260508043414 52 273 0.0 0.0 0.00 0.00 0.00 89 1016.7
20260508041913 52 273 0.0 0.0 0.00 0.00 0.00 87 1016.7
20260508041413 52 273 0.0 0.0 0.00 0.00 0.00 87 1016.7
20260508040913 52 273 0.0 0.0 0.00 0.00 0.00 87 1016.7
20260508035913 52 273 0.0 0.0 0.00 0.00 0.00 87 1016.6
20260508035413 53 273 0.0 0.0 0.00 0.00 0.00 87 1016.7
20260508034914 53 273 0.0 0.0 0.00 0.00 0.00 87 1016.7
20260508034413 53 273 0.0 0.0 0.00 0.00 0.00 86 1016.7
20260508033914 53 273 0.0 0.0 0.00 0.00 0.00 85 1016.6
20260508033414 53 273 0.0 0.0 0.00 0.00 0.00 85 1016.6
20260508032913 53 273 0.0 0.0 0.00 0.00 0.00 85 1016.6
20260508032413 53 273 0.0 0.0 0.00 0.00 0.00 84 1016.6
20260508031913 54 273 0.0 0.0 0.00 0.00 0.00 84 1016.7
20260508031413 54 273 0.0 0.0 0.00 0.00 0.00 84 1016.9
20260508030914 54 273 0.0 0.0 0.00 0.00 0.00 84 1016.9
20260508030413 54 273 0.0 0.0 0.00 0.00 0.00 84 1016.7
20260508025913 54 273 0.0 0.0 0.00 0.00 0.00 84 1016.7
20260508024913 55 273 0.0 0.0 0.00 0.00 0.00 83 1016.7
20260508023913 55 273 0.0 0.0 0.00 0.00 0.00 81 1016.7
20260508022913 55 273 0.0 0.0 0.00 0.00 0.00 80 1016.5
20260508022413 56 273 0.0 0.0 0.00 0.00 0.00 80 1016.4
20260508021913 56 273 0.0 0.0 0.00 0.00 0.00 80 1016.4
20260508020913 56 273 0.0 0.0 0.00 0.00 0.00 79 1016.2
20260508020413 56 273 0.0 0.0 0.00 0.00 0.00 79 1016.3
20260508015912 56 273 0.0 0.0 0.00 0.00 0.00 80 1016.2
20260508015412 57 273 0.0 0.0 0.00 0.00 0.00 80 1016.2
20260508014913 57 273 0.0 0.0 0.00 0.00 0.00 79 1016.2
20260508014412 57 273 0.0 0.0 0.00 0.00 0.00 76 1016.1
20260508013913 57 273 0.0 0.0 0.00 0.00 0.00 76 1016.0
20260508013412 58 273 0.0 0.0 0.00 0.00 0.00 75 1016.0
20260508012912 58 273 0.0 0.0 0.00 0.00 0.00 75 1016.0
20260508012412 58 273 0.0 0.0 0.00 0.00 0.00 74 1016.0
20260508011912 58 273 0.0 0.0 0.00 0.00 0.00 72 1015.9
20260508011413 59 273 0.0 0.0 0.00 0.00 0.00 72 1016.0
20260508010913 59 273 0.0 0.0 0.00 0.00 0.00 70 1015.9
20260508010412 59 273 0.0 0.0 0.00 0.00 0.00 73 1016.0
20260508005412 60 273 0.0 0.0 0.00 0.00 0.00 72 1015.8
20260508004912 60 273 0.0 0.0 0.00 0.00 0.00 72 1015.8
20260508004412 60 273 0.0 0.0 0.00 0.00 0.00 68 1015.8
20260508003912 61 273 0.0 0.0 0.00 0.00 0.00 67 1015.9
20260508003412 61 273 0.0 0.0 0.00 0.00 0.00 67 1015.9
20260508002412 62 273 0.0 0.0 0.00 0.00 0.00 67 1015.9
20260508001912 63 273 0.0 0.0 0.00 0.00 0.00 66 1015.9
20260508001412 64 273 0.0 2.0 0.00 0.00 0.00 56 1015.8
20260508000412 65 272 2.0 3.0 0.00 0.00 0.00 54 1015.7
20260507235912 65 330 0.0 3.0 0.00 0.00 0.00 51 1015.7
20260507235411 65 272 1.0 2.0 0.00 0.00 0.00 54 1015.4
20260507234411 65 342 2.0 4.0 0.00 0.00 0.00 52 1015.3
20260507233911 66 22 1.0 4.0 0.00 0.00 0.00 52 1015.4
20260507233411 66 342 1.0 4.0 0.00 0.00 0.00 51 1015.4
20260507232911 66 329 1.0 4.0 0.00 0.00 0.00 50 1015.5
20260507232411 66 278 2.0 4.0 0.00 0.00 0.00 50 1015.5
20260507231912 66 321 0.0 6.0 0.00 0.00 0.00 49 1015.5
20260507230911 67 268 0.0 5.0 0.00 0.00 0.00 49 1015.2
20260507230411 67 279 2.0 5.0 0.00 0.00 0.00 48 1015.3
20260507225911 68 24 3.0 5.0 0.00 0.00 0.00 48 1015.6
20260507225411 68 293 1.0 4.0 0.00 0.00 0.00 47 1015.5
20260507224911 68 61 0.0 4.0 0.00 0.00 0.00 47 1015.6
20260507224411 68 348 2.0 5.0 0.00 0.00 0.00 47 1015.5
20260507223911 68 42 1.0 5.0 0.00 0.00 0.00 48 1015.5
20260507223411 68 297 3.0 7.0 0.00 0.00 0.00 45 1015.4
20260507222911 68 288 1.0 7.0 0.00 0.00 0.00 49 1015.6
20260507222411 68 355 0.0 5.0 0.00 0.00 0.00 46 1015.4
20260507221911 68 294 1.0 5.0 0.00 0.00 0.00 49 1015.7
20260507221411 68 293 0.0 6.0 0.00 0.00 0.00 48 1015.6
20260507220911 68 9 2.0 6.0 0.00 0.00 0.00 47 1015.5
20260507220411 69 31 2.0 4.0 0.00 0.00 0.00 47 1015.5
20260507215911 69 285 1.0 3.0 0.00 0.00 0.00 47 1015.6
20260507213910 70 254 1.0 9.0 0.00 0.00 0.00 50 1015.6
20260507213411 69 304 1.0 9.0 0.00 0.00 0.00 46 1015.5
20260507212911 69 342 1.0 8.0 0.00 0.00 0.00 47 1015.5
20260507212410 69 11 2.0 8.0 0.00 0.00 0.00 45 1015.4
20260507211410 69 301 2.0 8.0 0.00 0.00 0.00 47 1015.6
20260507210911 69 19 5.0 8.0 0.00 0.01 0.00 48 1015.5
20260507210411 69 328 2.0 10.0 0.00 0.01 0.00 47 1015.5
20260507205411 70 198 0.0 7.0 0.00 0.01 0.00 48 1015.4
20260507204411 69 289 4.0 6.0 0.00 0.02 0.00 51 1015.6
20260507203410 70 341 1.0 8.0 0.00 0.02 0.00 49 1015.9
20260507202910 69 12 2.0 8.0 0.00 0.02 0.00 47 1015.8
20260507202410 68 32 2.0 6.0 0.00 0.03 0.00 48 1015.9
20260507201910 68 355 1.0 5.0 0.00 0.03 0.00 47 1016.0
20260507201410 68 313 4.0 5.0 0.00 0.04 0.00 46 1015.9
20260507200911 68 355 3.0 6.0 0.00 0.05 0.00 45 1016.1
20260507200410 68 294 0.0 8.0 0.00 0.06 0.00 48 1016.1
20260507195911 69 5 4.0 8.0 0.00 0.07 0.00 45 1016.3
20260507195410 69 335 2.0 6.0 0.00 0.07 0.00 44 1016.3
20260507194910 69 291 4.0 5.0 0.00 0.07 0.00 45 1016.3
20260507194410 69 33 3.0 8.0 0.00 0.07 0.00 46 1016.2
20260507193910 69 273 4.0 8.0 0.00 0.07 0.00 45 1016.2
20260507192910 70 355 5.0 8.0 0.00 0.07 0.00 46 1016.4
20260507192410 69 302 0.0 8.0 0.00 0.07 0.00 47 1016.4
20260507191410 69 28 2.0 8.0 0.00 0.07 0.00 44 1016.4
20260507190910 70 274 2.0 8.0 0.00 0.07 0.00 47 1016.5
20260507185910 68 26 4.0 10.0 0.00 0.07 0.00 50 1016.6
20260507185410 68 22 5.0 8.0 0.00 0.07 0.00 51 1016.7
20260507184410 67 235 1.0 11.0 0.00 0.07 0.00 48 1016.6
20260507183911 67 315 2.0 9.0 0.00 0.07 0.00 49 1016.6
20260507183409 67 13 1.0 9.0 0.00 0.07 0.00 46 1016.6
20260507182909 68 36 4.0 10.0 0.00 0.07 0.00 47 1016.7
20260507182409 69 5 2.0 10.0 0.00 0.07 0.00 50 1016.8
20260507181909 68 277 3.0 8.0 0.00 0.07 0.00 54 1016.8
20260507181409 68 300 2.0 8.0 0.00 0.07 0.00 49 1016.8
20260507180909 67 300 2.0 10.0 0.00 0.07 0.00 51 1016.8
20260507180409 67 38 2.0 10.0 0.00 0.07 0.00 50 1016.9
20260507175909 66 51 2.0 8.0 0.00 0.07 0.00 50 1016.8
20260507174409 66 177 2.0 9.0 0.00 0.07 0.00 50 1017.3
20260507172909 66 260 2.0 11.0 0.00 0.07 0.00 58 1017.5
20260507172409 66 26 9.0 11.0 0.00 0.07 0.00 50 1017.6
20260507171909 66 123 1.0 9.0 0.00 0.07 0.00 55 1017.4
20260507171409 65 347 1.0 9.0 0.00 0.07 0.00 53 1017.5
20260507170909 65 32 5.0 9.0 0.00 0.08 0.00 53 1017.6